FW4540 Weather Reports


Display with metric or nautical units.
time (UTC)temp
F
wind
direction
speed
MPH
gust
MPH
rain 1hr
in
rain 24hr
in
rain mn
in
humidity
%
barometer
mb
20260903105012 81 225 3.0 7.0 0.00 0.00 0.00 44 23.5
20260903103012 81 247 2.0 7.0 0.00 0.00 0.00 44 23.8
20260903102011 80 247 2.0 7.0 0.00 0.00 0.00 45 23.9
20260903101012 80 225 2.0 7.0 0.00 0.00 0.00 44 23.9
20260903100012 80 270 1.0 6.0 0.00 0.00 0.00 46 23.9
20260903095012 79 270 3.0 8.0 0.00 0.00 0.00 49 23.9
20260903094012 78 247 2.0 7.0 0.00 0.00 0.00 50 24.0
20260903093012 79 270 2.0 10.0 0.00 0.00 0.00 50 24.0
20260903092012 76 247 2.0 6.0 0.00 0.00 0.00 52 24.2
20260903091013 76 270 3.0 8.0 0.00 0.00 0.00 53 24.3
20260903083016 73 247 2.0 5.0 0.00 0.00 0.00 59 24.0
20260903082012 73 270 2.0 6.0 0.00 0.00 0.00 59 24.0
20260903081012 72 270 2.0 7.0 0.00 0.00 0.00 61 23.8
20260903080012 71 270 2.0 5.0 0.00 0.00 0.00 64 23.7
20260903075011 70 270 1.0 4.0 0.00 0.00 0.00 67 23.8
20260903074012 68 270 2.0 6.0 0.00 0.00 0.00 70 23.7
20260903072012 65 270 0.0 3.0 0.00 0.00 0.00 75 23.9
20260903071012 64 270 0.0 1.0 0.00 0.00 0.00 77 23.8
20260903063011 59 0 0.0 0.0 0.00 0.00 0.00 87 23.6
20260903062011 58 0 0.0 0.0 0.00 0.00 0.00 88 23.6
20260903060015 55 0 0.0 0.0 0.00 0.00 0.00 94 23.5
20260903054011 53 0 0.0 0.0 0.00 0.00 0.00 95 23.3
20260903053011 52 0 0.0 0.0 0.00 0.00 0.00 94 23.1
20260903052011 52 0 0.0 0.0 0.00 0.00 0.00 94 23.1
20260903051011 51 0 0.0 0.0 0.00 0.00 0.00 94 23.1
20260903050012 53 0 0.0 0.0 0.00 0.00 0.00 95 23.0
20260903043011 52 0 0.0 0.0 0.00 0.00 0.00 94 22.8
20260903042011 52 0 0.0 0.0 0.00 0.00 0.00 93 22.8
20260903040012 53 0 0.0 0.0 0.00 0.00 0.00 93 22.7
20260903035011 53 0 0.0 0.0 0.00 0.00 0.00 93 22.8
20260903034011 53 0 0.0 0.0 0.00 0.00 0.00 93 22.7
20260903033011 53 0 0.0 0.0 0.00 0.00 0.00 93 22.7
20260903032011 53 0 0.0 0.0 0.00 0.00 0.00 93 22.8
20260903031011 53 0 0.0 0.0 0.00 0.00 0.00 93 22.8
20260903025011 53 0 0.0 0.0 0.00 0.00 0.00 91 22.8
20260903024011 54 0 0.0 0.0 0.00 0.00 0.00 91 22.7
20260903022011 54 0 0.0 0.0 0.00 0.00 0.00 91 22.5
20260903021011 54 0 0.0 0.0 0.00 0.00 0.00 91 22.4
20260903020012 54 0 0.0 0.0 0.00 0.00 0.00 91 22.4
20260903015011 55 0 0.0 0.0 0.00 0.00 0.00 90 22.5
20260903014011 55 0 0.0 0.0 0.00 0.00 0.00 89 22.5
20260903013011 56 0 0.0 0.0 0.00 0.00 0.00 90 22.5
20260903011012 56 0 0.0 0.0 0.00 0.00 0.00 88 22.5
20260903010011 56 0 0.0 0.0 0.00 0.00 0.00 88 22.5
20260903004011 57 0 0.0 0.0 0.00 0.00 0.00 87 22.5
20260903003011 57 0 0.0 0.0 0.00 0.00 0.00 87 22.5
20260903002011 57 0 0.0 0.0 0.00 0.00 0.00 87 22.5
20260902235011 57 0 0.0 0.0 0.00 0.00 0.00 87 22.4
20260902234011 58 0 0.0 0.0 0.00 0.00 0.00 85 22.4
20260902233011 59 0 0.0 0.0 0.00 0.00 0.00 85 22.4
20260902232011 58 0 0.0 0.0 0.00 0.00 0.00 85 22.2
20260902231011 58 0 0.0 0.0 0.00 0.00 0.00 83 22.1
20260902225011 59 0 0.0 0.0 0.00 0.00 0.00 82 22.0
20260902224011 59 0 0.0 0.0 0.00 0.00 0.00 82 22.0
20260902223011 60 0 0.0 0.0 0.00 0.00 0.00 81 22.0
20260902222012 59 0 0.0 0.0 0.00 0.00 0.00 82 21.9
20260902221011 60 0 0.0 0.0 0.00 0.00 0.00 80 21.8
20260902215011 62 0 0.0 0.0 0.00 0.00 0.00 78 21.8
20260902213011 62 0 0.0 0.0 0.00 0.00 0.00 78 21.8
20260902212011 62 0 0.0 0.0 0.00 0.00 0.00 77 21.7
20260902211012 62 0 0.0 0.0 0.00 0.00 0.00 78 21.7
20260902210011 63 0 0.0 0.0 0.00 0.00 0.00 76 21.7
20260902205011 63 0 0.0 0.0 0.00 0.00 0.00 76 21.6
20260902204011 64 0 0.0 0.0 0.00 0.00 0.00 73 21.7
20260902203011 64 0 0.0 0.0 0.00 0.00 0.00 73 21.6
20260902202011 65 0 0.0 0.0 0.00 0.00 0.00 70 21.4
20260902201011 66 0 0.0 0.0 0.00 0.00 0.00 70 21.4
20260902200011 67 0 0.0 0.0 0.00 0.00 0.00 68 21.3
20260902195011 67 0 0.0 0.0 0.00 0.00 0.00 68 21.3
20260902194011 68 0 0.0 0.0 0.00 0.00 0.00 66 21.2
20260902193014 69 0 0.0 0.0 0.00 0.00 0.00 65 21.2
20260902191011 71 0 0.0 0.0 0.00 0.00 0.00 62 21.0
20260902185011 74 270 0.0 1.0 0.00 0.00 0.00 57 20.7
20260902184011 75 270 0.0 1.0 0.00 0.00 0.00 56 20.6
20260902181011 77 270 0.0 1.0 0.00 0.00 0.00 53 20.4
20260902180011 77 292 2.0 4.0 0.00 0.00 0.00 52 20.3
20260902175011 78 292 0.0 2.0 0.00 0.00 0.00 51 20.2
20260902174011 78 0 0.0 0.0 0.00 0.00 0.00 50 20.1
20260902173010 79 270 1.0 4.0 0.00 0.00 0.00 49 20.0
20260902172011 80 225 1.0 3.0 0.00 0.00 0.00 49 20.0
20260902171011 80 225 3.0 6.0 0.00 0.00 0.00 48 19.9
20260902170011 81 270 2.0 4.0 0.00 0.00 0.00 47 20.0
20260902165014 81 225 3.0 9.0 0.00 0.00 0.00 47 19.9
20260902164010 81 247 2.0 5.0 0.00 0.00 0.00 48 20.0
20260902162010 81 270 3.0 8.0 0.00 0.00 0.00 46 20.0
20260902161010 81 270 2.0 6.0 0.00 0.00 0.00 46 20.1
20260902160011 82 270 5.0 10.0 0.00 0.00 0.00 45 20.1
20260902155010 83 270 2.0 6.0 0.00 0.00 0.00 45 20.1
20260902153013 84 247 3.0 7.0 0.00 0.00 0.00 44 20.1
20260902152010 84 270 3.0 8.0 0.00 0.00 0.00 43 20.2
20260902151013 83 270 3.0 8.0 0.00 0.00 0.00 44 20.2
20260902150011 84 292 0.0 3.0 0.00 0.00 0.00 44 20.2
20260902144010 85 292 2.0 8.0 0.00 0.00 0.00 42 20.1
20260902143010 85 315 1.0 7.0 0.00 0.00 0.00 42 20.1
20260902142013 85 270 1.0 4.0 0.00 0.00 0.00 41 20.1
20260902141010 84 270 2.0 7.0 0.00 0.00 0.00 42 20.2
20260902135010 84 360 1.0 3.0 0.00 0.00 0.00 42 20.3
20260902134010 84 247 4.0 9.0 0.00 0.00 0.00 42 20.2
20260902132010 85 247 1.0 6.0 0.00 0.00 0.00 42 20.3
20260902130011 85 270 2.0 8.0 0.00 0.00 0.00 41 20.5
20260902125010 84 270 3.0 9.0 0.00 0.00 0.00 42 20.6
20260902124010 83 270 2.0 7.0 0.00 0.00 0.00 43 20.5
20260902123010 83 180 2.0 7.0 0.00 0.00 0.00 42 20.7
20260902122010 82 45 2.0 5.0 0.00 0.00 0.00 44 20.9
20260902121010 83 225 4.0 9.0 0.00 0.00 0.00 43 21.0
20260902120011 83 225 1.0 4.0 0.00 0.00 0.00 43 20.9
20260902115010 81 45 2.0 5.0 0.00 0.00 0.00 46 21.1
20260902114010 81 247 0.0 3.0 0.00 0.00 0.00 46 21.1
20260902113010 80 225 4.0 10.0 0.00 0.00 0.00 47 21.1
20260902111010 81 225 1.0 4.0 0.00 0.00 0.00 48 21.4
20260902110011 81 337 1.0 7.0 0.00 0.00 0.00 47 21.4